"Pseudo-MPEC" for ZTF01aQ

Created 2018 Nov 11 1:18:29 UT using Find_Orb

Click here for an explanation of pseudo-MPECs

 
 Astrometry: 
     ZTF01aQ  C2018 11 03.27517202 26 12.07 +29 22 38.5          17.59RUNEOCPI41
     ZTF01aQ  C2018 11 03.27551902 26 16.13 +29 22 46.1          17.59RUNEOCPI41
     ZTF01aQ  C2018 11 03.38816002 48 29.46 +29 25 08.4          17.46gUNEOCPI41
     ZTF01aQ  C2018 11 03.38850702 48 33.66 +29 25 01.9          17.46gUNEOCPI41
     ZTF01aQ  C2018 11 03.38862302 48 35.10 +29 25 00.8          17.50gUNEOCPI41
     ZTF01aQ  C2018 11 03.38897002 48 39.24 +29 24 54.6          17.50gUNEOCPI41

Station data:
(I41) Palomar Mountain--ZTF  (N33.357340 W116.859780)  US/California. 1.2-m
   f/2.44 Oschin Schmidt + CCD.

Orbital elements:  ZTF01aQ
   Perigee 2018 Nov 2.694575 +/- 0.0984 TT = 16:40:11 (JD 2458425.194575)
Epoch 2018 Nov  3.0 TT = JDT 2458425.5                        AutoNEOCP
M  84.05797420 +/- 19               (J2000 equator)
n 275.21662138 +/- 33.8             Peri.  269.07976 +/- 3.9
a 50522.7599 +/- 4131               Node   311.91517 +/- 0.16
e   0.7397195 +/- 0.0375            Incl.   29.83282 +/- 0.055
P1883.57m/1.308d           H 33.0   G  0.15   U 15.1
q 13150.0879 +/- 2983    Q 87895.4318 +/- 5319
From 6 observations 2018 Nov. 3 (2.7 hr); mean residual 0".42
Residuals in arcseconds: 
181103 I41  .64+  .29-    181103 I41  .27+  .04-    181103 I41  .39+  .37+
181103 I41  .64-  .30+    181103 I41  .01+  .54-    181103 I41  .67-  .21+

Ephemerides (geocentric):
Date (UTC) HH   RA              Dec         delta   r     elong  mag " sig PA
---- -- -- --  -------------   -----------  ------ ------ -----  --- ---- ---
2018 11 11 01  02 00 04.657   +29 20 09.93   84428 0.9907 161.1 17.7  25d  84
2018 11 11 02  02 12 28.200   +29 33 58.29   86052 0.9907 163.0 17.7  22d  86
2018 11 11 03  02 24 31.202   +29 43 12.88   87163 0.9907 164.7 17.7  20d  87
2018 11 11 04  02 36 21.753   +29 48 17.60   87772 0.9907 166.0 17.7  18d  89
2018 11 11 05  02 48 07.217   +29 49 24.84   87885 0.9907 167.0 17.6  17d  90
2018 11 11 06  02 59 54.665   +29 46 36.91   87504 0.9907 167.5 17.6  17d  92
2018 11 11 07  03 11 51.278   +29 39 46.31   86623 0.9907 167.6 17.6 978'  93
2018 11 11 08  03 24 04.759   +29 28 34.83   85236 0.9907 167.1 17.6 970'  95
2018 11 11 09  03 36 43.823   +29 12 31.42   83328 0.9906 166.1 17.5 976'  96
2018 11 11 10  03 49 58.837   +28 50 48.17   80879 0.9906 164.6 17.5 993'  98
2018 11 11 11  04 04 02.750   +28 22 13.44   77864 0.9906 162.6 17.5  17d 100
2018 11 11 12  04 19 12.514   +27 45 00.05   74246 0.9905 160.1 17.5  18d 101
2018 11 11 13  04 35 51.443   +26 56 24.24   69979 0.9905 157.1 17.5  19d 103
2018 11 11 14  04 54 33.373   +25 52 06.38   65000 0.9904 153.4 17.4  21d 105
2018 11 11 15  05 16 10.627   +24 24 51.88   59227 0.9904 148.9 17.3  23d 108
2018 11 11 16  05 42 10.861   +22 21 36.03   52547 0.9903 143.1 17.2  26d 110
2018 11 11 17  06 15 17.870   +19 16 03.27   44805 0.9902 135.2 17.1  31d 113
2018 11 11 18  07 01 31.838   +14 06 45.33   35804 0.9901 123.5 17.0  39d 117
2018 11 11 19  08 18 15.667   +03 53 53.20   25398 0.9900 102.7 16.9  56d 120
2018 11 11 20  11 30 15.438   -20 40 50.00   14984 .98992  51.0 18?? 104d 112
2018 11 11 21  18 44 44.006   -16 04 49.67   16208 .98991  52.0 18?? 162d  65
2018 11 11 22  21 26 24.178   +05 49 02.87   26964 .98998  96.4 17.2 127d  61
2018 11 11 23  22 36 33.775   +14 57 33.76   37177 0.9901 115.3 17.3 125d  64
2018 11 12 00  23 20 15.556   +19 43 18.07   45986 0.9901 126.4 17.4 159d  67
2018 11 12 01  23 52 04.462   +22 37 59.93   53565 0.9902 134.0 17.5  78d  70
2018 11 12 02  00 17 18.061   +24 35 27.49   60107 0.9902 139.8 17.6  35d  73
2018 11 12 03  00 38 24.824   +25 59 16.25   65760 0.9903 144.4 17.7  22d  75
2018 11 12 04  00 56 45.639   +27 01 23.94   70631 0.9903 148.3 17.7 982'  77
2018 11 12 05  01 13 09.404   +27 48 33.15   74801 0.9903 151.7 17.8 779'  79
2018 11 12 06  01 28 08.053   +28 24 46.60   78329 0.9904 154.6 17.8 652'  81
2018 11 12 07  01 42 03.769   +28 52 38.42   81259 0.9904 157.2 17.8 567'  82
2018 11 12 08  01 55 12.799   +29 13 49.93   83627 0.9904 159.6 17.8 509'  84
2018 11 12 09  02 07 47.639   +29 29 28.96   85457 0.9904 161.7 17.7 469'  86
2018 11 12 10  02 19 58.368   +29 40 20.81   86770 0.9904 163.6 17.7 440'  87
2018 11 12 11  02 31 53.518   +29 46 54.62   87576 0.9904 165.2 17.7 421'  89
2018 11 12 12  02 43 40.692   +29 49 27.05   87885 0.9904 166.5 17.6 408'  90
2018 11 12 13  02 55 27.035   +29 48 04.25   87698 0.9904 167.5 17.6 401'  91
2018 11 12 14  03 07 19.644   +29 42 42.56   87015 0.9904 168.0 17.6 399'  93
2018 11 12 15  03 19 25.970   +29 33 08.11   85829 0.9904 168.0 17.5 401'  94
2018 11 12 16  03 31 54.268   +29 18 55.16   84129 0.9903 167.4 17.5 407'  96
2018 11 12 17  03 44 54.167   +28 59 22.95   81896 0.9903 166.2 17.5 417'  97
2018 11 12 18  03 58 37.468   +28 33 30.09   79108 0.9903 164.5 17.5 432'  99
2018 11 12 19  04 13 19.334   +27 59 45.04   75733 0.9902 162.3 17.5 452' 101
2018 11 12 20  04 29 20.209   +27 15 49.39   71728 0.9902 159.6 17.4 479' 103
2018 11 12 21  04 47 09.119   +26 18 07.34   67039 0.9901 156.2 17.4 515' 105
2018 11 12 22  05 07 29.774   +25 00 46.14   61590 0.9901 152.0 17.3 564' 107
2018 11 12 23  05 31 32.947   +23 13 29.59   55283 0.9900 146.8 17.2 632' 109
2018 11 13 00  06 01 24.738   +20 36 36.63   47982 .98995 139.9 17.1 735' 112